Overview Statistics Trail Chart Weather Telemetry Raw packets
 

This is the latest recevied weather packets stored in our database for station/object SV9TNF-54. If no packets are shown the sender has not sent any weather packets the latest 10 day(s).

<< 31 32 33 34 35 36 37 >>
Time Temp. Humidity Pressure Rain* Wind** Luminosity Snow
1788432551 35° C 26% 1011.5 hPa 0 mm 19.22 m/s, 63° - -
1788432251 35.56° C 27% 1011.5 hPa 0 mm 17.88 m/s, 11° - -
1788431951 35.56° C 27% 1011.5 hPa 0 mm 17.88 m/s, 11° - -
1788431651 35.56° C 27% 1011.5 hPa 0 mm 17.88 m/s, 11° - -
1788431352 35° C 26% 1011.9 hPa 0 mm 9.83 m/s, 32° - -
1788431051 35° C 26% 1011.9 hPa 0 mm 9.83 m/s, 32° - -
1788430751 35° C 26% 1011.9 hPa 0 mm 9.83 m/s, 32° - -
1788430451 35° C 26% 1011.9 hPa 0 mm 9.83 m/s, 32° - -
1788430151 35° C 26% 1011.9 hPa 0 mm 9.83 m/s, 32° - -
1788429850 35° C 26% 1011.9 hPa 0 mm 9.83 m/s, 32° - -
1788429551 35.56° C 27% 1011.9 hPa 0 mm 17.88 m/s, 21° - -
1788429251 35.56° C 27% 1011.9 hPa 0 mm 17.88 m/s, 21° - -
1788428950 35.56° C 27% 1011.9 hPa 0 mm 17.88 m/s, 21° - -
1788428650 34.44° C 25% 1011.9 hPa 0 mm 25.48 m/s, 17° - -
1788428350 34.44° C 25% 1011.9 hPa 0 mm 25.48 m/s, 17° - -
1788428050 34.44° C 25% 1011.9 hPa 0 mm 25.48 m/s, 17° - -
1788427750 34.44° C 25% 1011.9 hPa 0 mm 25.48 m/s, 17° - -
1788427450 34.44° C 25% 1011.9 hPa 0 mm 25.48 m/s, 17° - -
1788427150 34.44° C 25% 1011.9 hPa 0 mm 25.48 m/s, 17° - -
1788426850 33.89° C 29% 1011.5 hPa 0 mm 43.36 m/s, 22° - -
1788426550 33.89° C 29% 1011.5 hPa 0 mm 43.36 m/s, 22° - -
1788426249 33.89° C 29% 1011.5 hPa 0 mm 43.36 m/s, 22° - -
1788425950 33.33° C 28% 1011.9 hPa 0 mm 35.32 m/s, 11° - -
1788425649 33.33° C 28% 1011.9 hPa 0 mm 35.32 m/s, 11° - -
1788425349 33.33° C 28% 1011.9 hPa 0 mm 35.32 m/s, 11° - -

* Rain latest hour (hover to see other rain measurements)
** Current wind speed in m/s (hover to see current wind gust speed)